Flag for France Weather past 2 weeks in Boulogne-Billancourt, France

Now
77 °F

Passing clouds.


Feels Like: 79 °F
Forecast: 61 / 78 °F
Wind: 3 mph from North

Location: Paris-Orly

Current Time: Sep 16, 2014 at 3:33:10 PM

Latest Report: Sep 16, 2014 at 3:00 PM


Visibility: N/A

Pressure: 29.89 "Hg

Humidity: 47%

Dew point: 55 °F

Location of Boulogne-BillancourtLocation

Historic Weather in Boulogne-Billancourt — Graph

°F

Boulogne-Billancourt temperature yesterday

Maximum temperature yesterday: 77 °F (at 4:30 PM)
Minimum temperature yesterday: 55 °F (at 5:30 AM)
Average temperature yesterday: 65 °F

Past Weeks' High & Low Weather Summary

 TemperatureHumidityPressure
High79 °F (Sep 7, 3:30 PM)100% (Sep 16, 7:30 AM)30.18 "Hg (Sep 16, 7:30 AM)
Low50 °F (Sep 11, 6:00 AM)36% (Sep 9, 5:00 PM)29.89 "Hg (Sep 16, 2:30 PM)
Average65 °F70%30.04 "Hg
* Reported Sep 1 2:00 PM — Sep 16 2:30 PM, Boulogne-Billancourt, Weather by CustomWeather, © 2014

Note: Actual official high and low records may vary slightly from our data, if they occured in-between our weather recording intervals... More about our weather records

Advertising

Boulogne-Billancourt weather history for previous 24 hours

 ConditionsComfort  
Time TempWeatherWind HumidityBarometerVisibility
2:30 PM
Sep 16
75 °FPassing clouds.3 mph47%29.89 "HgN/A
2:00 PM75 °FPassing clouds.5 mph54%29.92 "HgN/A
1:30 PM73 °FPassing clouds.3 mph57%29.92 "HgN/A
1:00 PM73 °FPassing clouds.5 mph61%29.92 "HgN/A
12:30 PM73 °FPassing clouds.3 mph61%29.92 "HgN/A
12:00 PM70 °FPassing clouds.5 mph69%29.95 "HgN/A
11:30 AM70 °FPassing clouds.6 mph69%29.95 "HgN/A
11:00 AM68 °FPassing clouds.5 mph73%29.95 "HgN/A
10:30 AM66 °FPassing clouds.5 mph73%29.95 "HgN/A
10:00 AM63 °FSunny.3 mph83%29.95 "Hg10 mi
9:30 AM63 °FSunny.3 mph83%29.95 "Hg10 mi
9:00 AM59 °FSunny.1 mph94%29.95 "Hg10 mi
8:30 AM57 °FSunny.2 mph100%29.95 "Hg10 mi
8:06 AM57 °FFog.No wind94%29.95 "HgN/A
8:00 AM55 °FClear.No wind100%29.95 "Hg10 mi
7:30 AM55 °FFog.2 mph100%29.95 "HgN/A
7:00 AM54 °FFog.No wind94%29.95 "HgN/A
6:30 AM54 °FFog.No wind94%29.92 "HgN/A
6:00 AM54 °FClear.1 mph94%29.92 "Hg10 mi
5:30 AM55 °FClear.No wind88%29.92 "Hg10 mi
5:00 AM55 °FClear.No wind94%29.92 "Hg10 mi
4:30 AM55 °FClear.No wind94%29.92 "Hg10 mi
4:00 AM55 °FClear.No wind94%29.95 "Hg10 mi
3:30 AM55 °FClear.1 mph94%29.95 "Hg10 mi
3:00 AM55 °FClear.2 mph94%29.95 "Hg10 mi
2:30 AM55 °FClear.No wind94%29.95 "Hg10 mi
2:00 AM57 °FClear.No wind88%29.95 "Hg10 mi
1:30 AM57 °FClear.No wind88%29.95 "Hg10 mi
1:00 AM59 °FClear.No wind82%29.95 "Hg10 mi
12:30 AM59 °FClear.1 mph82%29.95 "Hg10 mi
12:00 AM63 °FClear.No wind77%29.95 "Hg10 mi
11:30 PM
Sep 15
63 °FClear.No wind77%29.95 "Hg10 mi
11:00 PM64 °FClear.2 mph73%29.95 "Hg10 mi
10:30 PM66 °FClear.5 mph68%29.95 "Hg10 mi
10:00 PM66 °FPassing clouds.6 mph68%29.95 "HgN/A
9:30 PM68 °FClear.3 mph64%29.95 "Hg10 mi
9:00 PM68 °FSunny.3 mph64%29.92 "Hg10 mi
8:30 PM68 °FSunny.5 mph64%29.92 "Hg10 mi
8:00 PM72 °FSunny.5 mph53%29.92 "Hg10 mi
7:30 PM73 °FSunny.3 mph53%29.92 "Hg10 mi
7:00 PM73 °FPassing clouds.5 mph50%29.92 "HgN/A
6:30 PM75 °FPassing clouds.5 mph47%29.92 "HgN/A
6:00 PM75 °FSunny.2 mph44%29.92 "Hg10 mi
5:30 PM77 °FSunny.3 mph44%29.92 "Hg10 mi
5:00 PM77 °FSunny.2 mph47%29.92 "Hg10 mi
4:30 PM77 °FPassing clouds.3 mph44%29.92 "HgN/A
4:00 PM75 °FPassing clouds.3 mph47%29.92 "HgN/A
3:30 PM75 °FPassing clouds.2 mph50%29.92 "HgN/A
3:00 PM75 °FPassing clouds.5 mph54%29.92 "HgN/A
Weather by CustomWeather, © 2014

See weather overviewHow to use our weather pages